Miscellaneous Local Product
Issued by NWS Hastings, NE

Home | Current Version | Previous Version | Text Only | Print | Product List | Glossary Off
Versions: 1 2 3 4 5 6 7 8 9 10 11 12 13 14 15 16 17 18 19 20 21 22 23 24 25 26 27 28 29 30 31 32 33 34 35 36 37 38 39 40 41 42 43 44 45 46 47 48 49 50

726
AXUS43 KGID 151202
MISGRI

GID CWA HOURLY WEATHER ROUNDUP
NATIONAL WEATHER SERVICE HASTINGS NE
700 AM CDT SUN OCT 15 2017

NOTE: "FAIR" INDICATES FEW OR NO CLOUDS BELOW 12,000 FEET WITH NO
SIGNIFICANT WEATHER AND/OR OBSTRUCTIONS TO VISIBILITY.

...SOUTH CENTRAL NEBRASKA...

CITY           SKY/WX    TMP DP  RH WIND       PRES   REMARKS
GRAND ISLAND   CLEAR     34  34 100 W8        30.34R WCI  27
HASTINGS       CLEAR     35  32  88 W8        30.35R WCI  29
KEARNEY        CLEAR     34  32  92 W6        30.36R WCI  29
ORD            CLEAR     32  29  88 NW6       30.31S WCI  26
YORK           CLEAR     36  36 100 NW8       30.32R WCI  29
AURORA         CLEAR     34  34  98 W5        30.32R WCI  30
LEXINGTON      CLEAR     34  32  92 W8        30.37R WCI  27
HOLDREGE       CLEAR     33  31  92 NW5       30.36R WCI  28
HEBRON         CLEAR     39  35  86 NW5       30.34R

...NEBRASKA PANHANDLE...

CITY           SKY/WX    TMP DP  RH WIND       PRES   REMARKS
CHADRON        CLEAR     30  24  78 SW12      30.32R WCI  20
ALLIANCE       CLEAR     19  16  88 W10       30.33R WCI   7
SCOTTSBLUFF    CLOUDY    26  21  81 NW7       30.36R WCI  18
SIDNEY         CLOUDY    25  21  85 W5        30.38R WCI  19

...WESTERN AND NORTH CENTRAL NEBRASKA...

CITY           SKY/WX    TMP DP  RH WIND       PRES   REMARKS
VALENTINE      CLEAR     29  27  92 W7        30.29F WCI  22
AINSWORTH      CLEAR     31  30  98 SW5       30.30S WCI  26
ONEILL         CLEAR     32  32 100 W7        30.31R WCI  26
BROKEN BOW     CLEAR     35  31  85 NW9       30.34R WCI  28
IMPERIAL       CLEAR     31  27  85 W9        30.39S WCI  23
NORTH PLATTE   CLEAR     28  27  96 CALM      30.37R
MCCOOK         CLEAR     32  30  92 W10       30.39R WCI  24

...EASTERN NEBRASKA...

CITY           SKY/WX    TMP DP  RH WIND       PRES   REMARKS
NORFOLK        CLEAR     35  34  96 W10       30.28R WCI  27
SO SIOUX CITY  PTCLDY    38  35  89 NW12      30.27R WCI  30
TEKAMAH        CLEAR     40  34  79 NW8       30.27R WCI  34
COLUMBUS       CLEAR     37  33  85 W6        30.31R WCI  32
ALBION         CLEAR     35  33  92 NW6       30.31R WCI  30
OMAHA EPPLEY   CLOUDY    47  38  71 NW9       30.26R
OFFUTT AFB     MOCLDY    46  39  78 NW12      30.25R
MILLARD        MOCLDY    45  38  77 NW13      30.27R
LINCOLN        CLEAR     40  34  79 NW12      30.31R WCI  33
NEBRASKA CITY  CLOUDY    45  41  87 NW12      30.26R
BEATRICE       CLEAR     40  36  86 NW8       30.30R WCI  34
FALLS CITY     CLOUDY    47  39  74 NW9       30.26R

...NORTHERN KANSAS...

CITY           SKY/WX    TMP DP  RH WIND       PRES   REMARKS
GOODLAND       CLOUDY    30  27  88 W7        30.40R WCI  23
HILL CITY      CLEAR     34  33  96 NW6       30.41R WCI  29
NORTON         SUNNY     34  28  80 W8        30.38R WCI  27
PHILLIPSBURG   CLEAR     36  36 100 W8        30.40R WCI  29
SMITH CENTER   CLEAR     32  32 100 W6        30.39R WCI  26
HAYS           CLEAR     38  35  89 NW8       30.40R WCI  32
RUSSELL        CLEAR     38  37  97 NW8       30.37R WCI  32
CONCORDIA      CLEAR     39  36  89 NW8       30.34R WCI  33
SALINA         CLEAR     44  38  79 NW10      30.35R
TOPEKA         PTCLDY    46  42  86 W9        30.28R



USA.gov is the U.S. government's official web portal to all federal, state and local government web resources and services.